RYR97SR LIMJ-LIRN

Flight info

Callsign RYR97SR
Flight time 1h 1m
Altitude 37000
Route UNITA DCT ELB DCT EVULI DCT ERIKA
Aircraft B738/M-SDE3FGILRWY/SB1

Departure

Time 2026-04-28 16:17
Airport Genoa Cristoforo Colombo Airport (LIMJ)

Arrival

Time 2026-04-28 17:19
Airport Naples International Airport (LIRN)
Time Latitude Longitude Altitude Speed Heading
2026-04-28 15:56 44.41392 8.85097 20 ft 0 kts 15°
2026-04-28 16:10 44.41357 8.85084 14 ft 3 kts 15°
2026-04-28 16:11 44.41341 8.85056 22 ft 0 kts 102°
2026-04-28 16:13 44.41323 8.85125 19 ft 10 kts 111°
2026-04-28 16:14 44.41248 8.85281 19 ft 10 kts 168°
2026-04-28 16:14 44.41072 8.85215 19 ft 18 kts 217°
2026-04-28 16:15 44.40978 8.85297 19 ft 14 kts 105°
2026-04-28 16:15 44.40948 8.85448 20 ft 19 kts 105°
2026-04-28 16:15 44.40911 8.85633 20 ft 20 kts 105°
2026-04-28 16:16 44.40880 8.85987 21 ft 18 kts 63°
2026-04-28 16:16 44.40839 8.86034 21 ft 10 kts 257°
2026-04-28 16:17 44.40925 8.85564 19 ft 73 kts 285°
2026-04-28 16:17 44.41114 8.84596 22 ft 130 kts 285°
2026-04-28 16:17 44.41395 8.83169 90 ft 168 kts 285°
2026-04-28 16:17 44.41727 8.81603 682 ft 166 kts 285°
2026-04-28 16:18 44.41923 8.80040 1290 ft 166 kts 262°
2026-04-28 16:18 44.41401 8.78582 1684 ft 175 kts 217°
2026-04-28 16:18 44.40298 8.78007 2367 ft 171 kts 181°
2026-04-28 16:18 44.39074 8.78275 2767 ft 190 kts 158°
2026-04-28 16:19 44.37855 8.79182 3190 ft 201 kts 152°
2026-04-28 16:19 44.36610 8.80130 3628 ft 210 kts 153°
2026-04-28 16:19 44.35247 8.81098 3967 ft 226 kts 154°
2026-04-28 16:19 44.33787 8.81775 4796 ft 219 kts 178°
2026-04-28 16:20 44.32268 8.81601 5479 ft 222 kts 184°
2026-04-28 16:20 44.30730 8.81454 6173 ft 222 kts 181°
2026-04-28 16:20 44.29171 8.81341 6818 ft 226 kts 181°
2026-04-28 16:20 44.27598 8.81233 7458 ft 229 kts 182°
2026-04-28 16:21 44.25988 8.81128 8062 ft 234 kts 182°
2026-04-28 16:21 44.24359 8.81023 8778 ft 235 kts 182°
2026-04-28 16:21 44.22722 8.80921 9492 ft 237 kts 182°
2026-04-28 16:21 44.21070 8.80820 10184 ft 239 kts 182°
2026-04-28 16:22 44.19402 8.80718 10855 ft 241 kts 183°
2026-04-28 16:22 44.17724 8.80617 11527 ft 243 kts 183°
2026-04-28 16:22 44.16027 8.80515 12214 ft 245 kts 184°
2026-04-28 16:22 44.14315 8.80441 12918 ft 248 kts 178°
2026-04-28 16:23 44.12658 8.81184 13470 ft 263 kts 146°
2026-04-28 16:23 44.11207 8.82927 13707 ft 288 kts 141°
2026-04-28 16:23 44.09626 8.84819 13898 ft 312 kts 142°
2026-04-28 16:23 44.07907 8.86839 14064 ft 335 kts 142°
2026-04-28 16:24 44.06071 8.88983 14393 ft 351 kts 142°
2026-04-28 16:24 44.04178 8.91189 14982 ft 358 kts 142°
2026-04-28 16:24 44.02253 8.93426 15678 ft 362 kts 142°
2026-04-28 16:24 44.00308 8.95675 16377 ft 367 kts 143°
2026-04-28 16:25 43.98330 8.97960 17044 ft 372 kts 143°
2026-04-28 16:25 43.96330 9.00268 17707 ft 377 kts 143°
2026-04-28 16:25 43.94299 9.02610 18363 ft 382 kts 143°
2026-04-28 16:25 43.92246 9.04982 18946 ft 386 kts 143°
2026-04-28 16:26 43.90179 9.07376 19555 ft 389 kts 143°
2026-04-28 16:26 43.88091 9.09793 20148 ft 393 kts 143°
2026-04-28 16:26 43.85980 9.12236 20696 ft 398 kts 143°
2026-04-28 16:26 43.83849 9.14700 21292 ft 401 kts 143°
2026-04-28 16:27 43.81726 9.17153 21865 ft 404 kts 143°
2026-04-28 16:27 43.79560 9.19653 22424 ft 408 kts 143°
2026-04-28 16:27 43.75156 9.24727 23515 ft 415 kts 143°
2026-04-28 16:28 43.72925 9.27295 23981 ft 419 kts 143°
2026-04-28 16:28 43.70678 9.29877 24447 ft 422 kts 143°
2026-04-28 16:28 43.68416 9.32476 24913 ft 424 kts 143°
2026-04-28 16:28 43.66141 9.35085 25364 ft 427 kts 143°
2026-04-28 16:29 43.61539 9.40355 26253 ft 432 kts 143°
2026-04-28 16:29 43.56883 9.45677 27097 ft 438 kts 143°
2026-04-28 16:30 43.54529 9.48363 27490 ft 441 kts 142°
2026-04-28 16:30 43.52158 9.51066 27884 ft 444 kts 142°
2026-04-28 16:30 43.49774 9.53780 28279 ft 446 kts 142°
2026-04-28 16:30 43.47372 9.56513 28679 ft 449 kts 142°
2026-04-28 16:31 43.44958 9.59256 29057 ft 451 kts 142°
2026-04-28 16:31 43.42529 9.62012 29425 ft 454 kts 142°
2026-04-28 16:31 43.40086 9.64783 29817 ft 456 kts 142°
2026-04-28 16:31 43.37635 9.67559 30172 ft 458 kts 142°
2026-04-28 16:32 43.35168 9.70349 30453 ft 461 kts 142°
2026-04-28 16:32 43.30188 9.75974 31004 ft 466 kts 142°
2026-04-28 16:32 43.27682 9.78801 31295 ft 467 kts 142°
2026-04-28 16:33 43.25170 9.81630 31674 ft 467 kts 142°
2026-04-28 16:33 43.23508 9.83502 31954 ft 466 kts 143°
2026-04-28 16:33 43.20165 9.87261 32471 ft 464 kts 143°
2026-04-28 16:33 43.17664 9.90068 32817 ft 464 kts 143°
2026-04-28 16:34 43.15164 9.92872 33170 ft 464 kts 143°
2026-04-28 16:34 43.12667 9.95669 33537 ft 464 kts 143°
2026-04-28 16:34 43.10173 9.98460 33902 ft 463 kts 143°
2026-04-28 16:34 43.07679 10.01249 34217 ft 463 kts 143°
2026-04-28 16:35 43.05187 10.04031 34506 ft 463 kts 143°
2026-04-28 16:35 43.02690 10.06816 34785 ft 463 kts 143°
2026-04-28 16:35 43.00198 10.09592 35072 ft 462 kts 143°
2026-04-28 16:35 42.97706 10.12367 35339 ft 462 kts 143°
2026-04-28 16:36 42.95213 10.15138 35602 ft 462 kts 143°
2026-04-28 16:36 42.92756 10.17867 35846 ft 462 kts 143°
2026-04-28 16:36 42.90257 10.20640 36102 ft 462 kts 143°
2026-04-28 16:36 42.87763 10.23404 36353 ft 462 kts 143°
2026-04-28 16:37 42.85268 10.26167 36614 ft 462 kts 143°
2026-04-28 16:37 42.82778 10.28922 36870 ft 461 kts 143°
2026-04-28 16:37 42.80287 10.31675 37066 ft 462 kts 143°
2026-04-28 16:38 42.75342 10.37370 37007 ft 469 kts 134°
2026-04-28 16:38 42.73412 10.40938 37060 ft 468 kts 120°
2026-04-28 16:38 42.72062 10.44947 37030 ft 466 kts 108°
2026-04-28 16:39 42.70544 10.53490 37047 ft 464 kts 103°
2026-04-28 16:39 42.69092 10.62041 37043 ft 464 kts 103°
2026-04-28 16:40 42.67595 10.70562 37043 ft 464 kts 103°
2026-04-28 16:40 42.66070 10.79072 37050 ft 464 kts 103°
2026-04-28 16:41 42.64534 10.87578 37048 ft 464 kts 104°
2026-04-28 16:41 42.62989 10.96103 37048 ft 465 kts 104°
2026-04-28 16:42 42.61436 11.04632 37048 ft 466 kts 104°
2026-04-28 16:42 42.59875 11.13178 37051 ft 467 kts 104°
2026-04-28 16:43 42.58304 11.21729 37053 ft 468 kts 104°
2026-04-28 16:43 42.56723 11.30305 37055 ft 469 kts 104°
2026-04-28 16:44 42.55133 11.38882 37045 ft 469 kts 104°
2026-04-28 16:44 42.53536 11.47462 37046 ft 470 kts 104°
2026-04-28 16:45 42.51932 11.56041 37046 ft 470 kts 104°
2026-04-28 16:45 42.50321 11.64621 37040 ft 469 kts 104°
2026-04-28 16:46 42.48717 11.73121 37051 ft 469 kts 104°
2026-04-28 16:46 42.47096 11.81676 37048 ft 468 kts 104°
2026-04-28 16:47 42.45474 11.90198 37051 ft 468 kts 104°
2026-04-28 16:47 42.43845 11.98719 37049 ft 467 kts 104°
2026-04-28 16:48 42.42213 12.07219 37047 ft 467 kts 104°
2026-04-28 16:48 42.40573 12.15720 37051 ft 466 kts 104°
2026-04-28 16:49 42.38931 12.24201 37035 ft 466 kts 104°
2026-04-28 16:49 42.37283 12.32672 37038 ft 466 kts 104°
2026-04-28 16:50 42.35630 12.41135 37043 ft 465 kts 104°
2026-04-28 16:50 42.33960 12.49646 37048 ft 465 kts 104°
2026-04-28 16:51 42.32296 12.58092 37038 ft 465 kts 105°
2026-04-28 16:51 42.30625 12.66537 37047 ft 465 kts 105°
2026-04-28 16:51 42.29784 12.70771 36772 ft 468 kts 105°
2026-04-28 16:52 42.28954 12.74942 36487 ft 462 kts 105°
2026-04-28 16:52 42.28111 12.79170 36086 ft 458 kts 105°
2026-04-28 16:52 42.27285 12.83306 35722 ft 454 kts 105°
2026-04-28 16:52 42.26476 12.87349 35336 ft 451 kts 105°
2026-04-28 16:53 42.25648 12.91476 34950 ft 448 kts 105°
2026-04-28 16:53 42.24847 12.95462 34581 ft 445 kts 105°
2026-04-28 16:53 42.24036 12.99489 34198 ft 443 kts 105°
2026-04-28 16:53 42.23231 13.03480 33780 ft 440 kts 105°
2026-04-28 16:54 42.22428 13.07451 33374 ft 437 kts 105°
2026-04-28 16:54 42.21629 13.11394 32979 ft 434 kts 105°
2026-04-28 16:54 42.20836 13.15305 32602 ft 431 kts 105°
2026-04-28 16:54 42.20304 13.17924 32343 ft 429 kts 105°
2026-04-28 16:55 42.19265 13.23033 31854 ft 425 kts 105°
2026-04-28 16:55 42.18481 13.26875 31499 ft 422 kts 105°
2026-04-28 16:55 42.17672 13.30655 31143 ft 419 kts 109°
2026-04-28 16:55 42.16454 13.34209 30756 ft 416 kts 122°
2026-04-28 16:56 42.14767 13.37341 30422 ft 412 kts 133°
2026-04-28 16:56 42.12740 13.40026 30055 ft 408 kts 139°
2026-04-28 16:56 42.10647 13.42606 29643 ft 405 kts 139°
2026-04-28 16:56 42.08586 13.45170 29261 ft 401 kts 138°
2026-04-28 16:57 42.06548 13.47720 28881 ft 398 kts 138°
2026-04-28 16:57 42.04537 13.50248 28536 ft 394 kts 138°
2026-04-28 16:57 42.02544 13.52759 28158 ft 391 kts 138°
2026-04-28 16:57 42.00566 13.55251 27800 ft 388 kts 138°
2026-04-28 16:58 41.98598 13.57731 27434 ft 385 kts 138°
2026-04-28 16:58 41.96649 13.60186 27079 ft 383 kts 138°
2026-04-28 16:58 41.94714 13.62620 26738 ft 380 kts 138°
2026-04-28 16:58 41.92790 13.65039 26377 ft 378 kts 138°
2026-04-28 16:59 41.90874 13.67447 26037 ft 376 kts 138°
2026-04-28 16:59 41.88972 13.69834 25692 ft 374 kts 138°
2026-04-28 16:59 41.87072 13.72215 25331 ft 372 kts 138°
2026-04-28 16:59 41.85186 13.74579 24980 ft 371 kts 137°
2026-04-28 17:00 41.83304 13.76934 24626 ft 369 kts 138°
2026-04-28 17:00 41.82063 13.78487 24399 ft 368 kts 138°
2026-04-28 17:00 41.79566 13.81607 23934 ft 366 kts 137°
2026-04-28 17:00 41.77704 13.83933 23579 ft 365 kts 137°
2026-04-28 17:01 41.75848 13.86249 23175 ft 364 kts 138°
2026-04-28 17:01 41.74624 13.87775 22931 ft 362 kts 138°
2026-04-28 17:01 41.72786 13.90066 22569 ft 360 kts 138°
2026-04-28 17:01 41.70956 13.92344 22220 ft 358 kts 138°
2026-04-28 17:02 41.69120 13.94591 21858 ft 356 kts 142°
2026-04-28 17:02 41.67100 13.96447 21533 ft 351 kts 151°
2026-04-28 17:02 41.64995 13.98079 21219 ft 348 kts 152°
2026-04-28 17:02 41.62905 13.99687 20910 ft 345 kts 152°
2026-04-28 17:03 41.58757 14.02918 19956 ft 349 kts 151°
2026-04-28 17:03 41.56670 14.04566 19604 ft 347 kts 151°
2026-04-28 17:03 41.54602 14.06206 19317 ft 344 kts 151°
2026-04-28 17:04 41.50481 14.09486 18403 ft 349 kts 151°
2026-04-28 17:04 41.48390 14.11150 17918 ft 351 kts 151°
2026-04-28 17:05 41.44217 14.14472 17143 ft 345 kts 150°
2026-04-28 17:05 41.42187 14.16087 16795 ft 335 kts 150°
2026-04-28 17:05 41.40212 14.17659 16455 ft 326 kts 150°
2026-04-28 17:06 41.36409 14.20679 15843 ft 314 kts 151°
2026-04-28 17:06 41.34535 14.22164 15537 ft 313 kts 151°
2026-04-28 17:06 41.30812 14.25113 14919 ft 311 kts 151°
2026-04-28 17:07 41.28955 14.26582 14619 ft 310 kts 151°
2026-04-28 17:07 41.27105 14.28046 14316 ft 309 kts 150°
2026-04-28 17:07 41.25255 14.29508 14002 ft 309 kts 150°
2026-04-28 17:07 41.23408 14.30967 13674 ft 309 kts 151°
2026-04-28 17:08 41.21560 14.32427 13331 ft 308 kts 151°
2026-04-28 17:08 41.19721 14.33877 13004 ft 307 kts 151°
2026-04-28 17:08 41.17885 14.35323 12674 ft 305 kts 150°
2026-04-28 17:08 41.16076 14.36774 12378 ft 303 kts 149°
2026-04-28 17:09 41.14292 14.38248 12066 ft 301 kts 149°
2026-04-28 17:09 41.12518 14.39718 11764 ft 299 kts 149°
2026-04-28 17:09 41.10782 14.41195 11445 ft 293 kts 143°
2026-04-28 17:09 41.09530 14.43234 11151 ft 285 kts 112°
2026-04-28 17:10 41.09180 14.45750 10965 ft 274 kts 89°
2026-04-28 17:10 41.09473 14.48153 10798 ft 265 kts 71°
2026-04-28 17:10 41.10299 14.50342 10466 ft 263 kts 59°
2026-04-28 17:10 41.11268 14.52345 10140 ft 260 kts 58°
2026-04-28 17:11 41.12241 14.54346 9775 ft 258 kts 59°
2026-04-28 17:11 41.13157 14.56393 9336 ft 257 kts 69°
2026-04-28 17:11 41.13351 14.58718 8862 ft 251 kts 107°
2026-04-28 17:11 41.12536 14.60710 8472 ft 246 kts 133°
2026-04-28 17:12 41.11264 14.62195 8053 ft 244 kts 147°
2026-04-28 17:12 41.09825 14.63391 7747 ft 243 kts 150°
2026-04-28 17:12 41.08380 14.64488 7492 ft 243 kts 159°
2026-04-28 17:12 41.06749 14.64788 7208 ft 238 kts 194°
2026-04-28 17:13 41.05383 14.63693 7052 ft 224 kts 231°
2026-04-28 17:13 41.04511 14.62059 6835 ft 224 kts 231°
2026-04-28 17:13 41.03493 14.60487 6493 ft 225 kts 229°
2026-04-28 17:13 41.02590 14.58786 6056 ft 228 kts 236°
2026-04-28 17:14 41.01759 14.56991 5565 ft 228 kts 237°
2026-04-28 17:14 41.00931 14.55210 5003 ft 228 kts 236°
2026-04-28 17:14 41.00111 14.53466 4649 ft 220 kts 236°
2026-04-28 17:14 40.99319 14.51785 4329 ft 210 kts 237°
2026-04-28 17:15 40.98557 14.50175 4027 ft 203 kts 236°
2026-04-28 17:15 40.97818 14.48615 3720 ft 196 kts 237°
2026-04-28 17:15 40.97108 14.47112 3448 ft 189 kts 237°
2026-04-28 17:15 40.96426 14.45670 3183 ft 182 kts 238°
2026-04-28 17:16 40.95770 14.44281 2924 ft 175 kts 237°
2026-04-28 17:16 40.95142 14.42951 2697 ft 164 kts 238°
2026-04-28 17:16 40.94560 14.41721 2431 ft 153 kts 238°
2026-04-28 17:16 40.94010 14.40555 2212 ft 148 kts 238°
2026-04-28 17:17 40.93469 14.39408 2016 ft 146 kts 239°
2026-04-28 17:17 40.92924 14.38247 1810 ft 153 kts 238°
2026-04-28 17:17 40.92352 14.37036 1635 ft 156 kts 238°
2026-04-28 17:17 40.91783 14.35822 1379 ft 154 kts 236°
2026-04-28 17:18 40.91211 14.34628 1108 ft 154 kts 235°
2026-04-28 17:18 40.90648 14.33408 853 ft 157 kts 235°
2026-04-28 17:18 40.90066 14.32171 611 ft 160 kts 233°
2026-04-28 17:18 40.89484 14.30931 368 ft 165 kts 234°
2026-04-28 17:19 40.88883 14.29675 246 ft 151 kts 238°
2026-04-28 17:19 40.88435 14.28724 282 ft 73 kts 238°
2026-04-28 17:19 40.88231 14.28291 299 ft 27 kts 238°
2026-04-28 17:19 40.88164 14.28152 302 ft 10 kts 237°
2026-04-28 17:20 40.88120 14.28064 304 ft 14 kts 231°
2026-04-28 17:20 40.88062 14.28055 307 ft 13 kts 148°
2026-04-28 17:20 40.87995 14.28107 308 ft 6 kts 150°
2026-04-28 17:20 40.87972 14.28115 307 ft 1 kts 178°
2026-04-28 17:21 40.87962 14.28107 307 ft 2 kts 213°
2026-04-28 17:21 40.87950 14.28095 308 ft 4 kts 220°
2026-04-28 17:21 40.87898 14.28099 311 ft 10 kts 139°
2026-04-28 17:22 40.87862 14.28137 308 ft 0 kts 141°